This is the latest recevied weather packets stored in our database for station/object VA5EVR-13. If no packets are shown the sender has not sent any weather packets the latest 10 day(s).
| Time | Temp. | Humidity | Pressure | Rain* | Wind** | Luminosity | Snow |
|---|---|---|---|---|---|---|---|
| 1777759812 | 18.89° C | 38% | 88.8 hPa | 0 mm | - | - | - |
| 1777759212 | 18.89° C | 38% | 88.8 hPa | 0 mm | - | - | - |
| 1777758012 | 18.33° C | 39% | 88.8 hPa | 0 mm | - | - | - |
| 1777757412 | 18.33° C | 38% | 88.8 hPa | 0 mm | - | - | - |
| 1777756812 | 17.78° C | 40% | 88.8 hPa | 0 mm | - | - | - |
| 1777756212 | 18.33° C | 41% | 88.8 hPa | 0 mm | - | - | - |
| 1777755612 | 17.78° C | 40% | 88.8 hPa | 0 mm | - | - | - |
| 1777755012 | 17.78° C | 43% | 88.8 hPa | 0 mm | - | - | - |
| 1777754411 | 18.33° C | 42% | 88.8 hPa | 0 mm | - | - | - |
| 1777753811 | 18.89° C | 42% | 88.8 hPa | 0 mm | - | - | - |
| 1777753212 | 18.89° C | 41% | 88.8 hPa | 0 mm | - | - | - |
| 1777752611 | 17.78° C | 41% | 88.8 hPa | 0 mm | - | - | - |
| 1777752011 | 16.67° C | 44% | 88.8 hPa | 0 mm | - | - | - |
| 1777751412 | 16.67° C | 46% | 88.8 hPa | 0 mm | - | - | - |
| 1777750811 | 16.67° C | 48% | 88.8 hPa | 0 mm | - | - | - |
| 1777750211 | 16.67° C | 45% | 88.8 hPa | 0 mm | - | - | - |
| 1777749611 | 16.67° C | 46% | 88.8 hPa | 0 mm | - | - | - |
| 1777749011 | 16.67° C | 46% | 88.8 hPa | 0 mm | - | - | - |
| 1777748411 | 16.67° C | 44% | 88.8 hPa | 0 mm | - | - | - |
| 1777747812 | 16.67° C | 46% | 88.8 hPa | 0 mm | - | - | - |
| 1777747212 | 16.67° C | 46% | 88.8 hPa | 0 mm | - | - | - |
| 1777746612 | 16.67° C | 46% | 88.8 hPa | 0 mm | - | - | - |
| 1777745412 | 16.67° C | 46% | 88.8 hPa | 0 mm | - | - | - |
| 1777744812 | 16.11° C | 45% | 88.8 hPa | 0 mm | - | - | - |
| 1777744211 | 16.11° C | 47% | 88.8 hPa | 0 mm | - | - | - |
* Rain latest hour (hover to see other rain measurements)
** Current wind speed in m/s (hover to see current wind gust speed)